Location: ??
(31.9467°N, 34.8903°E)
Time: 17:42:04
(UTC+00:00)

YAOGAN 1 - Pass Details

Date: 29 October 2020
Orbit: 618 x 620 km, 97.9° (Epoch: 29 November)

Event Time Altitude Azimuth Distance (km) Brightness Sun altitude
Rises 15:34:24 0° 133° (SE) 2,884 5.6 -9.4°
Reaches altitude 10° 15:37:04 10° 115° (ESE) 1,982 4.7 -9.9°
Maximum altitude 15:40:08 19° 70° (ENE) 1,468 3.9 -10.6°
Drops below altitude 10° 15:43:13 10° 24° (NNE) 1,990 4.8 -11.2°
Sets 15:45:54 0° 7° (N) 2,900 5.8 -11.8°
